EW9345 Weather Reports


time (UTC)temp
C
wind
direction
speed
KPH
gust
KPH
rain 1hr
cm
rain 24hr
cm
rain mn
cm
humidity
%
barometer
mb
20260505152920 25 229 0.0 0.0 0.00 0.00 0.00 45 1008.5
20260505152419 25 85 0.0 0.0 0.00 0.00 0.00 44 1008.6
20260505151920 25 166 0.0 0.0 0.00 0.00 0.00 45 1008.8
20260505151419 24 205 0.0 0.0 0.00 0.00 0.00 45 1008.8
20260505150921 24 87 0.0 0.0 0.00 0.00 0.00 45 1008.9
20260505150418 24 87 0.0 0.0 0.00 0.00 0.00 45 1008.8
20260505124815 20 190 0.0 0.0 0.00 0.00 0.00 55 1008.9
20260505124301 20 158 0.0 0.0 0.00 0.00 0.00 56 1008.9
20260505124044 20 196 0.0 0.0 0.00 0.00 0.00 56 1008.9
20260505123244 19 135 0.0 0.0 0.00 0.00 0.00 57 1008.9
20260505122738 19 223 0.0 0.0 0.00 0.00 0.00 58 1008.9
20260505122228 19 156 0.0 0.0 0.00 0.00 0.00 60 1008.9
20260505122016 18 209 0.0 0.0 0.00 0.00 0.00 59 1008.9
20260505121216 18 175 0.0 0.0 0.00 0.00 0.00 60 1009.0
20260505120706 18 188 0.0 0.0 0.00 0.00 0.00 61 1009.1
20260505120200 18 138 0.0 0.0 0.00 0.00 0.00 63 1009.0
20260505115654 17 217 0.0 0.0 0.00 0.00 0.00 64 1009.0
20260505115144 17 263 0.0 0.0 0.00 0.00 0.00 64 1009.1
20260505114638 17 154 0.0 0.0 0.00 0.00 0.00 65 1009.1
20260505114132 17 229 0.0 0.0 0.00 0.00 0.00 66 1009.2
20260505113623 16 205 0.0 0.0 0.00 0.00 0.00 67 1009.1
20260505113116 16 162 0.0 0.0 0.00 0.00 0.00 69 1009.2
20260505112610 16 103 0.0 0.0 0.00 0.00 0.00 69 1009.0
20260505112106 15 106 0.0 0.0 0.00 0.00 0.00 70 1009.2
20260505111604 15 176 0.0 0.0 0.00 0.00 0.00 70 1009.4
20260505111401 15 196 0.0 0.0 0.00 0.00 0.00 70 1009.2
20260505110603 15 155 0.0 0.0 0.00 0.00 0.00 70 1009.1
20260505110104 15 118 0.0 0.0 0.00 0.00 0.00 70 1009.0
20260505102055 -17 0.0 0.0 0.00 0.00 0.00 1009.0
20260505101507 -17 0.0 0.0 0.00 0.00 0.00 1008.9
20260505101007 -17 0.0 0.0 0.00 0.00 0.00 1008.9
20260505100505 -17 0.0 0.0 0.00 0.00 0.00 1008.9
20260505100004 -17 0.0 0.0 0.00 0.00 0.00 1008.8
20260505095722 -17 0.0 0.0 0.00 0.00 0.00 1008.9
20260505094908 -17 0.0 0.0 0.00 0.00 0.00 1008.3
20260505094359 -17 0.0 0.0 0.00 0.00 0.00 1008.3
20260505093859 -17 0.0 0.0 0.00 0.00 0.00 1008.2
20260505093357 -17 0.0 0.0 0.00 0.00 0.00 1008.2
20260505092854 -17 0.0 0.0 0.00 0.00 0.00 1008.2
20260505092306 -17 0.0 0.0 0.00 0.00 0.00 1008.2
20260505091807 -17 0.0 0.0 0.00 0.00 0.00 1008.2
20260505091304 -17 0.0 0.0 0.00 0.00 0.00 1008.3
20260505090701 14 0.0 0.0 0.00 0.00 0.00 71 1008.3
20260505090201 14 139 0.0 0.0 0.00 0.00 0.00 71 1008.2
20260505090104 14 139 0.0 0.0 0.00 0.00 0.00 71 1008.2
20260505085020 13 181 0.0 0.0 0.00 0.00 0.00 71 1008.2
20260505084518 14 162 0.0 0.0 0.00 0.00 0.00 72 1008.3
20260505084015 14 207 0.0 0.0 0.00 0.00 0.00 72 1008.2
20260505083515 14 154 0.0 0.0 0.00 0.00 0.00 72 1008.3
20260505083016 14 148 0.0 0.0 0.00 0.00 0.00 71 1008.3
20260505082514 14 105 0.0 0.0 0.00 0.00 0.00 71 1008.3
20260505082015 14 162 0.0 0.0 0.00 0.00 0.00 71 1008.3
20260505081812 14 192 0.0 0.0 0.00 0.00 0.00 70 1008.2
20260505081012 14 236 0.0 0.0 0.00 0.00 0.00 70 1008.2
20260505080512 14 229 0.0 0.0 0.00 0.00 0.00 70 1008.2
20260505080012 14 221 0.0 0.0 0.00 0.00 0.00 70 1008.2
20260505075506 14 161 0.0 0.0 0.00 0.00 0.00 70 1008.3
20260505075305 14 116 0.0 0.0 0.00 0.00 0.00 70 1008.2
20260505074504 14 186 0.0 0.0 0.00 0.00 0.00 70 1008.3
20260505074001 14 165 0.0 0.0 0.00 0.00 0.00 70 1008.2
20260505073459 14 209 0.0 0.0 0.00 0.00 0.00 69 1008.3
20260505072958 14 123 0.0 0.0 0.00 0.00 0.00 69 1008.2
20260505072457 14 146 0.0 0.0 0.00 0.00 0.00 69 1008.3
20260505071957 14 118 0.0 0.0 0.00 0.00 0.00 68 1008.2
20260505071454 14 137 0.0 0.0 0.00 0.00 0.00 68 1008.2
20260505070954 15 137 0.0 0.0 0.00 0.00 0.00 68 1008.2
20260505070501 15 137 0.0 0.0 0.00 0.00 0.00 67 1008.2
20260505065954 15 122 0.0 0.0 0.00 0.00 0.00 67 1008.2
20260505065454 15 153 0.0 0.0 0.00 0.00 0.00 67 1008.2
20260505064955 15 244 0.0 0.0 0.00 0.00 0.00 66 1008.2
20260505064455 15 158 0.0 0.0 0.00 0.00 0.00 66 1008.2
20260505063955 15 231 0.0 0.0 0.00 0.00 0.00 65 1008.2
20260505063450 15 174 0.0 0.0 0.00 0.00 0.00 65 1008.2
20260505063246 15 131 0.0 0.0 0.00 0.00 0.00 65 1008.1
20260505062448 15 148 0.0 0.0 0.00 0.00 0.00 65 1008.2
20260505061947 15 153 0.0 0.0 0.00 0.00 0.00 65 1008.3
20260505061446 15 205 0.0 0.0 0.00 0.00 0.00 65 1008.4
20260505060946 15 150 0.0 0.0 0.00 0.00 0.00 64 1008.3
20260505060444 15 236 0.0 0.0 0.00 0.00 0.00 65 1008.4
20260505055948 15 200 0.0 0.0 0.00 0.00 0.00 64 1008.4
20260505055448 15 200 0.0 0.0 0.00 0.00 0.00 64 1008.4
20260505055232 15 154 0.0 0.0 0.00 0.00 0.00 63 1008.4
20260505054446 15 117 0.0 0.0 0.00 0.00 0.00 63 1008.4
20260505053944 15 122 0.0 0.0 0.00 0.00 0.00 63 1008.4
20260505053446 15 151 0.0 0.0 0.00 0.00 0.00 63 1008.4
20260505052943 15 129 0.0 0.0 0.00 0.00 0.00 63 1008.4
20260505052442 16 155 0.0 0.0 0.00 0.00 0.00 62 1008.5
20260505051940 16 176 0.0 0.0 0.00 0.00 0.00 62 1008.6
20260505051441 16 115 0.0 0.0 0.00 0.00 0.00 62 1008.6
20260505051234 16 146 0.0 0.0 0.00 0.00 0.00 62 1008.6
20260505050440 16 103 0.0 0.0 0.00 0.00 0.00 61 1008.6
20260505041431 16 124 0.0 0.0 0.00 0.00 0.00 58 1008.7
20260505040932 16 157 0.0 0.0 0.00 0.00 0.00 58 1008.8
20260505040430 16 117 0.0 0.0 0.00 0.00 0.00 57 1008.7
20260505035930 16 132 0.0 0.0 0.00 0.00 0.00 57 1008.7
20260505035429 16 133 0.0 0.0 0.00 0.00 0.00 57 1008.7
20260505034930 16 118 0.0 0.0 0.00 0.00 0.00 56 1008.7
20260505034425 16 197 0.0 0.0 0.00 0.00 0.00 56 1008.8
20260505033924 16 149 0.0 0.0 0.00 0.00 0.00 56 1008.8
20260505033426 16 109 0.0 0.0 0.00 0.00 0.00 55 1008.8
20260505033225 17 138 0.0 0.0 0.00 0.00 0.00 54 1008.8
20260505032724 17 132 0.0 0.0 0.00 0.00 0.00 54 1008.8
20260505031924 17 110 0.0 0.0 0.00 0.00 0.00 54 1008.9
20260505031426 17 221 0.0 0.0 0.00 0.00 0.00 53 1008.9
20260505030926 17 135 0.0 0.0 0.00 0.00 0.00 52 1008.8
20260505030424 17 177 0.0 0.0 0.00 0.00 0.00 52 1008.9
20260505030124 17 229 0.0 0.0 0.00 0.00 0.00 51 1008.9
20260505030119 17 172 0.0 0.0 0.00 0.00 0.00 51 1009.0
20260505030041 17 120 0.0 0.0 0.00 0.00 0.00 51 1008.9
20260505024425 17 141 0.0 0.0 0.00 0.00 0.00 51 1009.0
20260505024315 18 139 0.0 0.0 0.00 0.00 0.00 50 1009.0
20260505024002 17 111 0.0 0.0 0.00 0.00 0.00 51 1009.0
20260505022926 18 216 0.0 0.0 0.00 0.00 0.00 50 1009.1
20260505022727 18 147 0.0 0.0 0.00 0.00 0.00 50 1009.1
20260505021926 18 155 0.0 0.0 0.00 0.00 0.00 50 1009.1
20260505021425 18 209 0.0 0.0 0.00 0.00 0.00 49 1009.1
20260505021219 18 218 0.0 0.0 0.00 0.00 0.00 49 1009.1
20260505020426 18 132 0.0 0.0 0.00 0.00 0.00 48 1009.0
20260505020221 18 145 0.0 0.0 0.00 0.00 0.00 48 1009.0
20260505015424 18 202 0.0 0.0 0.00 0.00 0.00 48 1009.0
20260505014925 18 94 0.0 0.0 0.00 0.00 0.00 48 1009.0
20260505014426 18 152 0.0 0.0 0.00 0.00 0.00 48 1008.9
20260505013924 18 191 0.0 0.0 0.00 0.00 0.00 47 1009.0
20260505013423 19 110 0.0 0.0 0.00 0.00 0.00 46 1009.0
20260505012924 19 105 0.0 0.0 0.00 0.00 0.00 44 1008.9
20260505012426 20 138 0.0 0.0 0.00 0.00 0.00 41 1008.8
20260505011921 20 147 0.0 0.0 0.00 0.00 0.00 38 1008.7
20260505011420 20 146 0.0 0.0 0.00 0.00 0.00 38 1008.6
20260505011223 20 80 0.0 0.0 0.00 0.00 0.00 37 1008.4
20260505010417 20 116 0.0 0.0 0.00 0.00 0.00 37 1008.4
20260505005917 20 243 0.0 0.0 0.00 0.00 0.00 37 1008.4
20260505005414 20 148 0.0 0.0 0.00 0.00 0.00 37 1008.3
20260505004915 20 134 0.0 0.0 0.00 0.00 0.00 37 1008.2
20260505004413 20 243 0.0 0.0 0.00 0.00 0.00 37 1008.1
20260505003915 20 207 0.0 0.0 0.00 0.00 0.00 36 1008.2
20260505003404 20 180 0.0 0.0 0.00 0.00 0.00 36 1008.0
20260505002857 20 162 0.0 0.0 0.00 0.00 0.00 36 1008.0
20260505002351 21 236 0.0 0.0 0.00 0.00 0.00 36 1007.9
20260505001841 21 156 0.0 0.0 0.00 0.00 0.00 35 1007.9
20260505001335 21 162 0.0 0.0 0.00 0.00 0.00 35 1007.8
20260505000929 21 190 0.0 0.0 0.00 0.00 0.00 35 1007.6
20260505000906 21 214 0.0 0.0 0.00 0.00 0.00 35 1007.8
20260504235826 21 228 0.0 0.0 0.00 0.00 0.00 35 1007.6
20260504235623 21 195 0.0 0.0 0.00 0.00 0.00 34 1007.4
20260504234827 21 145 0.0 0.0 0.00 0.00 0.00 34 1007.4
20260504234328 21 179 0.0 0.0 0.00 0.00 0.00 34 1007.4
20260504233825 21 158 0.0 0.0 0.00 0.00 0.00 34 1007.2
20260504233324 22 138 0.0 0.0 0.00 0.00 0.00 33 1007.2
20260504232826 22 151 0.0 0.0 0.00 0.00 0.00 33 1007.1
20260504232322 22 231 0.0 0.0 0.00 0.00 0.00 33 1007.0
20260504231823 22 137 0.0 0.0 0.00 0.00 0.00 33 1006.9
20260504231323 22 212 0.0 0.0 0.00 0.00 0.00 32 1006.9
20260504230821 22 217 0.0 0.0 0.00 0.00 0.00 32 1006.8
20260504230617 22 257 0.0 0.0 0.00 0.00 0.00 32 1006.8
20260504225818 22 210 0.0 0.0 0.00 0.00 0.00 33 1006.8
20260504225312 22 198 0.0 0.0 0.00 0.00 0.00 32 1006.8
20260504224901 22 215 0.0 0.0 0.00 0.00 0.00 32 1006.8
20260504224836 22 168 0.0 0.0 0.00 0.00 0.00 32 1006.8
20260504223758 23 212 0.0 0.0 0.00 0.00 0.00 31 1006.9
20260504223257 23 175 0.0 0.0 0.00 0.00 0.00 32 1006.8
20260504222757 23 233 0.0 0.0 0.00 0.00 0.00 31 1006.8
20260504222256 23 147 0.0 0.0 0.00 0.00 0.00 32 1006.9
20260504221757 23 209 0.0 0.0 0.00 0.00 0.00 31 1006.8
20260504221257 23 150 0.0 0.0 0.00 0.00 0.00 31 1006.9
20260504220756 23 215 0.0 0.0 0.00 0.00 0.00 31 1006.9
20260504220258 23 220 0.0 0.0 0.00 0.00 0.00 31 1007.0
20260504215755 23 240 0.0 0.0 0.00 0.00 0.00 30 1007.1
20260504215256 23 185 0.0 0.0 0.00 0.00 0.00 31 1007.1
20260504214754 23 211 0.0 0.0 0.00 0.00 0.00 31 1007.2
20260504214252 23 195 0.0 0.0 0.00 0.00 0.00 32 1007.2
20260504214052 23 274 0.0 0.0 0.00 0.00 0.00 30 1007.3
20260504213250 23 275 0.0 0.0 0.00 0.00 0.00 31 1007.3
20260504212746 23 243 0.0 0.0 0.00 0.00 0.00 31 1007.4
20260504212246 23 224 0.0 0.0 0.00 0.00 0.00 31 1007.2
20260504211747 23 210 0.0 0.0 0.00 0.00 0.00 30 1007.5
20260504211247 23 276 0.0 0.0 0.00 0.00 0.00 31 1007.3
20260504210747 23 157 0.0 0.0 0.00 0.00 0.00 30 1007.4
20260504210247 23 256 0.0 0.0 0.00 0.00 0.00 31 1007.4
20260504205746 23 324 0.0 0.0 0.00 0.00 0.00 30 1007.4
20260504205244 23 189 0.0 0.0 0.00 0.00 0.00 31 1007.4
20260504205042 23 153 0.0 0.0 0.00 0.00 0.00 30 1007.3
20260504204244 23 205 0.0 0.0 0.00 0.00 0.00 30 1007.4
20260504203742 23 167 0.0 0.0 0.00 0.00 0.00 30 1007.3
20260504203247 23 158 0.0 0.0 0.00 0.00 0.00 30 1007.3
20260504202742 23 146 0.0 0.0 0.00 0.00 0.00 30 1007.4
20260504202242 23 297 0.0 0.0 0.00 0.00 0.00 31 1007.5
20260504201743 23 239 0.0 0.0 0.00 0.00 0.00 31 1007.5
20260504201238 23 243 0.0 0.0 0.00 0.00 0.00 31 1007.5
20260504201037 22 204 0.0 0.0 0.00 0.00 0.00 31 1007.5
20260504200538 23 294 0.0 0.0 0.00 0.00 0.00 32 1007.6
20260504200132 22 238 0.0 0.0 0.00 0.00 0.00 31 1007.7
20260504195814 23 191 0.0 0.0 0.00 0.00 0.00 31 1007.6
20260504194737 22 311 0.0 0.0 0.00 0.00 0.00 30 1007.8
20260504194234 22 313 0.0 0.0 0.00 0.00 0.00 31 1007.7
20260504193735 22 273 0.0 0.0 0.00 0.00 0.00 31 1007.7
20260504193538 22 205 0.0 0.0 0.00 0.00 0.00 32 1007.7
20260504192734 22 241 0.0 0.0 0.00 0.00 0.00 31 1007.7
20260504192234 22 160 0.0 0.0 0.00 0.00 0.00 32 1007.9
20260504191733 22 148 0.0 0.0 0.00 0.00 0.00 31 1008.1
20260504191530 22 247 0.0 0.0 0.00 0.00 0.00 32 1008.0
20260504190734 22 177 0.0 0.0 0.00 0.00 0.00 31 1008.2
20260504190328 22 172 0.0 0.0 0.00 0.00 0.00 32 1008.3
20260504190305 22 196 0.0 0.0 0.00 0.00 0.00 32 1008.2
20260504185222 22 214 0.0 0.0 0.00 0.00 0.00 32 1008.2
20260504184716 22 164 0.0 0.0 0.00 0.00 0.00 32 1008.3
20260504184207 22 221 0.0 0.0 0.00 0.00 0.00 31 1008.4
20260504183701 22 249 0.0 0.0 0.00 0.00 0.00 33 1008.5
20260504183157 22 238 0.0 0.0 0.00 0.00 0.00 32 1008.5
20260504182658 21 244 0.0 0.0 0.00 0.00 0.00 32 1008.6
20260504182547 22 221 0.0 0.0 0.00 0.00 0.00 32 1008.6
20260504182542 22 155 0.0 0.0 0.00 0.00 0.00 32 1008.6
20260504181158 22 163 0.0 0.0 0.00 0.00 0.00 33 1008.7
20260504180659 21 150 0.0 0.0 0.00 0.00 0.00 33 1008.8
20260504180158 21 153 0.0 0.0 0.00 0.00 0.00 33 1008.8
20260504175658 21 232 0.0 0.0 0.00 0.00 0.00 34 1008.9
20260504175158 21 207 0.0 0.0 0.00 0.00 0.00 32 1009.1
20260504174952 21 219 0.0 0.0 0.00 0.00 0.00 33 1009.2
20260504174202 21 302 0.0 0.0 0.00 0.00 0.00 34 1009.2
20260504173953 21 236 0.0 0.0 0.00 0.00 0.00 35 1009.2
20260504173202 21 276 0.0 0.0 0.00 0.00 0.00 34 1009.2
20260504172701 21 215 0.0 0.0 0.00 0.00 0.00 35 1009.2
20260504172156 21 266 0.0 0.0 0.00 0.00 0.00 34 1009.3
20260504171649 20 211 0.0 0.0 0.00 0.00 0.00 35 1009.4
20260504171144 20 138 0.0 0.0 0.00 0.00 0.00 34 1009.4
20260504170643 20 272 0.0 0.0 0.00 0.00 0.00 34 1009.6
20260504170440 20 311 0.0 0.0 0.00 0.00 0.00 35 1009.7
20260504160130 20 227 0.0 0.0 0.00 0.00 0.00 34 1010.5